TimeEDT,TemperatureF,Dew PointF,Humidity,Sea Level PressureIn,VisibilityMPH,Wind Direction,Wind SpeedMPH,Gust SpeedMPH,PrecipitationIn,Events,Conditions,WindDirDegrees,DateUTC
12:54 AM,54.0,53.1,97,29.97,3.0,East,18.4,25.3,0.02,Rain,Light Rain,80,2013-05-06 04:54:00
1:54 AM,54.0,53.1,97,29.95,4.0,East,16.1,23.0,0.01,Rain,Light Rain,80,2013-05-06 05:54:00
2:20 AM,53.6,53.6,100,29.95,2.5,East,15.0,21.9,0.00,Rain,Light Rain,90,2013-05-06 06:20:00
2:33 AM,53.6,53.6,100,29.95,3.0,East,12.7,-,0.01,Rain,Light Rain,90,2013-05-06 06:33:00
2:54 AM,54.0,53.1,97,29.93,3.0,East,16.1,-,0.01,Rain,Light Rain,80,2013-05-06 06:54:00
3:54 AM,54.0,53.1,97,29.92,5.0,East,11.5,-,0.01,Rain,Light Rain,90,2013-05-06 07:54:00
4:54 AM,55.0,53.1,93,29.91,10.0,East,16.1,23.0,0.00,,Overcast,80,2013-05-06 08:54:00
5:54 AM,55.0,54.0,96,29.89,5.0,East,18.4,24.2,0.00,Rain,Light Rain,80,2013-05-06 09:54:00
6:54 AM,55.0,54.0,96,29.90,4.0,East,17.3,26.5,0.00,,Light Drizzle,80,2013-05-06 10:54:00
7:28 AM,55.4,53.6,94,29.92,2.0,East,16.1,-,0.00,Rain,Light Rain,90,2013-05-06 11:28:00
7:35 AM,55.4,53.6,94,29.92,3.0,East,15.0,24.2,0.00,Rain,Light Rain,80,2013-05-06 11:35:00
7:43 AM,55.4,53.6,94,29.92,1.8,East,18.4,24.2,0.01,Rain,Light Rain,80,2013-05-06 11:43:00
7:54 AM,55.9,54.0,93,29.91,4.0,East,15.0,23.0,0.02,Rain,Light Rain,90,2013-05-06 11:54:00
8:29 AM,55.4,55.4,100,29.92,2.0,East,11.5,-,0.02,Rain,Light Rain,90,2013-05-06 12:29:00
8:32 AM,55.4,55.4,100,29.92,4.0,East,12.7,19.6,0.02,Rain,Light Rain,80,2013-05-06 12:32:00
8:54 AM,55.9,55.0,97,29.91,7.0,East,13.8,-,0.03,Rain,Light Rain,80,2013-05-06 12:54:00
9:19 AM,57.2,55.4,94,29.92,2.0,East,13.8,-,0.00,Rain,Light Rain,100,2013-05-06 13:19:00
9:54 AM,57.0,55.0,93,29.91,4.0,East,13.8,-,0.04,Rain,Light Rain,90,2013-05-06 13:54:00
10:01 AM,57.2,55.4,94,29.91,3.0,East,11.5,-,0.00,Rain,Light Rain,90,2013-05-06 14:01:00
10:35 AM,57.2,55.4,94,29.91,1.5,East,13.8,20.7,0.00,Rain,Light Rain,100,2013-05-06 14:35:00
10:54 AM,57.9,57.0,97,29.91,3.0,East,11.5,20.7,0.06,Rain,Rain,100,2013-05-06 14:54:00
11:05 AM,57.2,57.2,100,29.92,2.0,East,9.2,-,0.01,Rain,Light Rain,100,2013-05-06 15:05:00
11:41 AM,59.0,57.2,94,29.92,1.5,East,6.9,-,0.13,Rain,Rain,100,2013-05-06 15:41:00
11:54 AM,59.0,57.0,93,29.90,1.5,East,8.1,-,0.16,Rain,Heavy Rain,100,2013-05-06 15:54:00
12:02 PM,59.0,57.2,94,29.91,3.0,ESE,6.9,-,0.04,Rain,Rain,110,2013-05-06 16:02:00
12:08 PM,59.0,57.2,94,29.91,1.8,SE,4.6,-,0.06,Rain,Heavy Rain,130,2013-05-06 16:08:00
12:21 PM,59.0,57.2,94,29.90,2.5,SSE,3.5,-,0.16,Rain,Rain,160,2013-05-06 16:21:00
12:29 PM,59.0,57.2,94,29.91,1.2,South,5.8,-,0.27,Rain,Heavy Rain,170,2013-05-06 16:29:00
12:52 PM,59.0,57.2,94,29.89,2.5,East,6.9,-,0.69,Rain,Rain,100,2013-05-06 16:52:00
12:54 PM,59.0,57.9,96,29.88,3.0,East,6.9,-,0.69,Rain,Rain,100,2013-05-06 16:54:00
1:28 PM,60.8,57.2,88,29.87,2.5,North,3.5,-,0.07,Rain,Rain,10,2013-05-06 17:28:00
1:37 PM,60.8,59.0,94,29.87,4.0,NNW,3.5,-,0.08,Rain,Light Rain,340,2013-05-06 17:37:00
1:45 PM,60.8,59.0,94,29.88,10.0,NE,4.6,-,0.08,,Overcast,40,2013-05-06 17:45:00
1:54 PM,61.0,59.0,93,29.86,10.0,Variable,3.5,-,0.08,,Overcast,0,2013-05-06 17:54:00
2:44 PM,64.4,57.2,77,29.86,10.0,East,4.6,-,N/A,,Mostly Cloudy,90,2013-05-06 18:44:00
2:54 PM,64.9,59.0,81,29.84,10.0,East,4.6,-,N/A,,Mostly Cloudy,80,2013-05-06 18:54:00
3:42 PM,64.4,57.2,77,29.84,10.0,East,6.9,-,N/A,,Mostly Cloudy,80,2013-05-06 19:42:00
3:54 PM,64.0,57.0,78,29.83,10.0,East,5.8,-,N/A,,Mostly Cloudy,100,2013-05-06 19:54:00
4:54 PM,63.0,59.0,87,29.82,9.0,ENE,4.6,-,0.02,Rain,Light Rain,70,2013-05-06 20:54:00
5:54 PM,66.0,59.0,78,29.81,10.0,East,6.9,-,0.00,,Mostly Cloudy,90,2013-05-06 21:54:00
6:54 PM,66.0,59.0,78,29.81,10.0,ENE,9.2,-,N/A,,Scattered Clouds,60,2013-05-06 22:54:00
7:23 PM,64.4,59.0,83,29.83,10.0,NNE,3.5,-,N/A,,Mostly Cloudy,20,2013-05-06 23:23:00
7:35 PM,64.4,60.8,88,29.83,10.0,ENE,13.8,18.4,0.00,Rain-Thunderstorm,Light Thunderstorms and Rain,60,2013-05-06 23:35:00
7:54 PM,61.0,57.0,87,29.84,9.0,East,6.9,-,0.01,Rain-Thunderstorm,Light Thunderstorms and Rain,80,2013-05-06 23:54:00
8:00 PM,60.8,57.2,88,29.85,10.0,East,10.4,-,0.00,Rain-Thunderstorm,Light Thunderstorms and Rain,80,2013-05-07 00:00:00
8:54 PM,61.0,57.9,90,29.86,10.0,NE,6.9,-,0.00,Rain-Thunderstorm,Light Thunderstorms and Rain,40,2013-05-07 00:54:00
9:23 PM,59.0,57.2,94,29.88,10.0,NNE,9.2,-,0.01,Rain,Light Rain,20,2013-05-07 01:23:00
9:54 PM,57.9,55.9,93,29.88,10.0,NNE,8.1,-,0.01,,Mostly Cloudy,30,2013-05-07 01:54:00
10:08 PM,57.2,55.4,94,29.88,10.0,NNE,8.1,-,N/A,,Mostly Cloudy,30,2013-05-07 02:08:00
10:54 PM,57.0,55.9,96,29.89,10.0,ENE,3.5,-,N/A,,Mostly Cloudy,60,2013-05-07 02:54:00
11:02 PM,57.2,55.4,94,29.90,3.0,SSE,4.6,-,0.01,Rain-Thunderstorm,Heavy Thunderstorms and Rain,150,2013-05-07 03:02:00
11:05 PM,57.2,55.4,94,29.90,2.0,Calm,Calm,-,0.05,Rain-Thunderstorm,Heavy Thunderstorms and Rain,0,2013-05-07 03:05:00
11:16 PM,57.2,55.4,94,29.90,2.0,ENE,8.1,-,0.25,Rain-Thunderstorm,Thunderstorms and Rain,60,2013-05-07 03:16:00
11:28 PM,57.2,53.6,88,29.90,5.0,Variable,4.6,-,0.29,Rain-Thunderstorm,Light Thunderstorms and Rain,0,2013-05-07 03:28:00
11:46 PM,57.2,53.6,88,29.90,4.0,Calm,Calm,-,0.37,Rain,Rain,0,2013-05-07 03:46:00
11:54 PM,57.0,54.0,89,29.88,5.0,Calm,Calm,-,0.39,Rain,Light Rain,0,2013-05-07 03:54:00